This is the latest recevied weather packets stored in our database for station/object DO6GZ. If no packets are shown the sender has not sent any weather packets the latest 10 day(s).
| Time | Temp. | Humidity | Pressure | Rain* | Wind** | Luminosity | Snow |
|---|---|---|---|---|---|---|---|
| 1787690031 | 20.56° C | 96% | 1018.3 hPa | 0 mm | - | - | - |
| 1787689403 | 20.56° C | 99% | 1018.2 hPa | 0 mm | - | - | - |
| 1787688776 | 20.56° C | 10% | - | 0 mm | - | - | - |
| 1787688149 | 20.56° C | 10% | - | 0 mm | - | - | - |
| 1787687521 | 20.56° C | 10% | - | 0 mm | - | - | - |
| 1787686894 | 20.56° C | 96% | 1018.1 hPa | 0 mm | - | - | - |
| 1787686267 | 20.56° C | 94% | 1018.1 hPa | 0 mm | - | - | - |
| 1787685639 | 20.56° C | 93% | 1018 hPa | 0 mm | - | - | - |
| 1787684385 | 20.56° C | 84% | 1017.9 hPa | 0 mm | - | - | - |
| 1787683757 | 21.11° C | 79% | 1017.8 hPa | 0 mm | - | - | - |
| 1787683130 | 21.11° C | 74% | 1017.6 hPa | 0 mm | - | - | - |
| 1787682503 | 21.67° C | 72% | 1017.6 hPa | 0 mm | - | - | - |
| 1787681875 | 21.67° C | 69% | 1017.4 hPa | 0 mm | - | - | - |
| 1787680620 | 22.22° C | 66% | 1017.1 hPa | 0 mm | - | - | - |
| 1787679993 | 22.22° C | 63% | 1017 hPa | 0 mm | - | - | - |
| 1787679365 | 22.22° C | 59% | 1017 hPa | 0 mm | - | - | - |
| 1787678738 | 22.78° C | 54% | 1017 hPa | 0 mm | - | - | - |
| 1787678110 | 22.78° C | 50% | 1017.1 hPa | 0 mm | - | - | - |
| 1787677483 | 23.33° C | 48% | 1017 hPa | 0 mm | - | - | - |
| 1787676855 | 23.33° C | 47% | 1016.9 hPa | 0 mm | - | - | - |
| 1787676228 | 23.33° C | 46% | 1016.8 hPa | 0 mm | - | - | - |
| 1787675600 | 23.89° C | 45% | 1016.8 hPa | 0 mm | - | - | - |
| 1787674972 | 23.89° C | 44% | 1016.8 hPa | 0 mm | - | - | - |
| 1787674345 | 23.89° C | 44% | 1016.7 hPa | 0 mm | - | - | - |
| 1787673718 | 23.89° C | 43% | 1016.7 hPa | 0 mm | - | - | - |
* Rain latest hour (hover to see other rain measurements)
** Current wind speed in m/s (hover to see current wind gust speed)